Location: Casilda
(33.0440°S, 61.1680°W)
Time: 08:32:36
(UTC-03:00)

ISS - Pass Details

Date: 21 September 2023
Orbit: 413 x 421 km, 51.6° (Epoch: 26 September)

Event Time Altitude Azimuth Distance (km) Brightness Sun altitude
Exits shadow 05:39:23 42° 257° (WSW) 626 -3.4 -16.8°
Maximum altitude 05:40:00 48° 221° (SW) 569 -3.4 -16.7°
Drops below altitude 10° 05:43:21 10° 145° (SE) 1,533 -0.3 -16.0°
Sets 05:45:31 0° 139° (SE) 2,404 0.9 -15.5°
